Tracking 30994 objects as of 8-Jul-2025
HD Live streaming from Space Station
objects crossing your sky now

STARLINK-32879

Track STARLINK-32879 now!
10-day predictions
STARLINK-32879 is classified as:


NORAD ID: 62957
Int'l Code: 2025-029K
Perigee: 481.7 km
Apogee: 483.1 km
Inclination: 53.2 °
Period: 94.1 minutes
Semi major axis: 6853 km
RCS: Unknown
Launch date: February 11, 2025
Source: United States (US)
Launch site: AIR FORCE WESTERN TEST RANGE (AFWTR)
Your satellite tracking list
Your tracking list is empty




NASA's NSSDC Master Catalog

Two Line Element Set (TLE):
1 62957U 25029K   25188.55596079  .00023481  00000-0  80260-3 0  9994
2 62957  53.1589 291.2901 0000988  73.4009 286.7100 15.30191717 23806
Source of the keplerian elements: AFSPC